GFSFLT2_con_mucape_000.txt.gz
CAPE
1424 1461 1195 1021 946 873 849 1203 1523 1746 1540 1306 1105 1075 1160 809 618 547 437 569 716 771 300 238 383 450 287 280 460 564 752 742
1701 1621 1492 1254 584 686 785 846 1154 1515 1254 960 647 706 626 348 238 298 230 185 113 181 339 395 334 267 179 204 224 209 187 200
1946 1904 1618 1353 1023 890 858 916 1001 1319 1418 768 412 203 117 98 9 115 70 11 0 0 79 163 146 187 162 185 55 0 0 3
1611 1798 1650 1431 1193 976 1040 861 791 762 936 917 578 328 36 11 2 20 0 0 0 0 0 0 0 0 0 0 0 0 0 0
326 576 973 1109 799 834 1059 791 797 776 576 420 398 264 9 0 0 0 0 0 0 0 0 0 0 0 0 1 2 28 0 0
221 305 749 660 658 1145 1072 755 805 580 264 190 0 0 0 15 0 0 0 0 0 0 0 0 0 0 0 0 0 0 0 5
0 30 171 275 197 622 566 636 530 168 17 0 0 0 0 0 0 0 0 0 0 0 0 1 2 1 3 1 0 0 0 1
0 0 8 29 3 2 5 8 4 0 0 0 0 0 0 0 0 0 0 0 0 0 0 0 0 0 0 1 5 1 1 5
0 0 0 0 0 0 0 0 0 0 0 0 0 0 0 0 0 0 0 0 0 0 0 0 0 0 0 0 0 0 0 0
0 0 0 0 0 0 0 0 0 0 0 0 0 0 0 0 0 0 0 0 0 0 0 0 0 0 0 0 0 0 0 0
0 0 0 0 0 0 0 0 0 0 0 0 0 0 0 0 0 0 0 0 0 0 0 0 0 0 0 0 0 0 0 0
0 0 0 0 0 0 0 0 0 0 0 0 0 0 0 0 0 0 0 0 0 0 0 0 0 0 0 0 0 0 0 0
0 0 0 0 0 0 0 0 0 0 0 0 0 0 0 0 0 0 0 0 0 0 0 0 0 0 0 0 0 0 0 0
0 0 0 0 0 0 0 0 0 0 0 0 0 0 0 0 0 0 0 0 0 0 0 0 0 0 0 0 0 0 0 0
0 0 0 0 0 0 0 0 0 0 0 0 0 0 0 0 0 0 0 0 0 0 0 0 0 0 0 0 0 0 0 0
0 0 0 0 0 0 0 0 0 0 0 0 0 0 0 0 0 0 0 0 0 0 0 0 0 0 0 0 0 0 0 0
0 0 0 0 0 0 0 0 0 0 0 0 0 0 0 0 0 0 0 0 0 0 0 0 0 0 0 0 0 0 0 0
0 0 0 0 0 1 0 0 0 0 0 2 21 25 23 0 0 0 0 0 0 0 0 0 0 0 0 0 0 0 0 0
0 0 0 5 3 0 0 0 0 0 0 0 2 41 29 3 4 4 1 1 0 0 0 0 0 0 0 0 0 0 0 0
1 0 0 2 0 0 0 0 0 0 0 0 0 11 37 11 0 0 0 0 0 0 0 0 0 0 0 0 0 0 0 0

GFSFLT2_con_mucape_003.txt.gz
CAPE
1038 948 937 1081 990 1071 1239 1532 1746 1654 1457 1404 1313 1169 1147 781 734 679 564 694 759 543 478 254 224 512 233 230 174 299 264 316
1326 1221 1095 696 568 775 797 1135 1400 1385 1121 884 641 765 751 402 237 274 182 150 30 46 123 254 332 276 224 130 114 108 58 69
1470 1420 1320 996 573 398 732 904 1172 1326 956 686 389 158 51 10 21 87 124 23 0 0 0 36 84 53 13 34 97 99 14 0
1637 1624 1506 1266 877 733 635 573 630 981 1087 511 353 119 20 0 0 5 0 0 0 0 0 0 0 0 0 0 0 0 0 1
1892 1772 1567 1175 1013 908 802 654 552 523 531 592 287 199 0 0 0 0 0 0 0 0 0 0 0 0 0 0 0 2 9 139
248 334 673 648 700 613 838 713 538 535 433 210 153 18 0 0 0 0 0 0 0 0 0 0 0 0 0 0 0 0 0 0
41 68 460 216 347 752 883 643 605 535 167 32 0 0 0 0 0 0 0 0 0 0 0 0 0 0 0 0 0 0 0 0
0 0 36 82 34 60 93 252 378 316 14 0 0 0 0 0 0 0 0 0 0 0 0 0 0 0 0 0 0 0 0 0
0 0 0 0 0 0 0 0 0 0 0 0 0 0 0 0 0 0 0 0 0 0 0 0 0 0 0 0 0 0 0 0
0 0 0 0 0 0 0 0 0 0 0 0 0 0 0 0 0 0 0 0 0 0 0 0 0 0 0 0 0 0 0 0
0 0 0 0 0 0 0 0 0 0 0 0 0 0 0 0 0 0 0 0 0 0 0 0 0 0 0 0 0 0 0 0
0 0 0 0 0 0 0 0 0 0 0 0 0 0 0 0 0 0 0 0 0 0 0 0 0 0 0 0 0 0 0 0
0 0 0 0 0 0 0 0 0 0 0 0 0 0 0 0 0 0 0 0 0 0 0 0 0 0 0 0 0 0 0 0
0 0 0 0 0 0 0 0 0 0 0 0 0 0 0 0 0 0 0 0 0 0 0 0 0 0 0 0 0 0 0 0
0 0 0 0 0 0 0 0 0 0 0 0 0 0 0 0 0 0 0 0 0 0 0 0 0 0 0 0 0 0 0 0
0 0 0 0 0 0 0 0 0 0 0 0 0 0 0 1 1 1 6 1 0 0 0 0 0 0 0 0 0 0 0 0
0 0 0 0 0 0 0 0 0 0 0 0 0 0 0 0 5 24 14 1 0 0 0 0 0 0 0 0 0 0 0 0
0 0 0 0 0 0 0 0 0 0 0 0 0 0 0 0 2 20 12 0 0 0 1 1 0 0 0 0 0 1 0 0
0 0 0 0 1 0 0 0 0 0 0 0 0 0 0 0 0 0 6 12 29 1 0 0 1 0 0 1 0 1 0 0
0 0 0 0 0 0 0 0 0 0 0 0 0 0 0 0 0 2 25 33 13 41 1 0 0 0 0 0 0 0 0 0

GFSFLT2_con_mucape_006.txt.gz
CAPE
586 660 746 909 978 1046 1174 1400 1498 1357 1237 1364 1248 1129 972 687 586 534 404 370 154 175 224 397 438 324 222 168 157 175 137 97
849 689 591 325 424 639 806 1060 1309 1154 884 643 528 646 535 305 59 201 146 99 53 24 10 80 207 234 183 49 68 72 56 75
1101 949 887 521 234 266 556 844 1081 1071 768 497 201 34 3 0 2 25 83 9 0 0 0 0 2 31 16 13 22 25 28 43
1244 1189 1080 775 534 332 212 265 558 906 748 348 104 62 0 0 0 0 0 0 0 0 0 0 0 0 0 0 0 0 0 0
1357 1314 1271 1037 868 434 412 349 306 306 567 397 175 113 14 0 0 0 0 0 0 0 0 0 0 0 0 0 0 0 0 0
1590 1440 1345 1049 779 684 553 465 359 297 289 216 152 65 5 0 0 0 0 0 0 0 0 0 0 0 0 0 0 0 0 0
776 429 278 342 343 376 385 567 555 396 350 266 36 15 0 0 0 0 0 0 0 0 0 0 0 0 0 0 0 0 0 0
0 3 111 85 13 101 225 323 331 295 402 142 0 0 0 0 0 0 0 0 0 0 0 0 0 0 0 0 0 0 0 0
0 0 0 0 0 0 0 0 0 9 27 0 0 0 0 0 0 0 0 0 0 0 0 0 0 0 0 0 0 0 0 0
0 0 0 0 0 0 0 0 0 0 0 0 0 0 0 0 0 0 0 0 0 0 0 0 0 0 0 0 0 0 0 0
0 0 0 0 0 0 0 0 0 0 0 0 0 0 0 0 0 0 0 0 0 0 0 0 0 0 0 0 0 0 0 0
0 0 0 0 0 0 0 0 0 0 0 0 0 0 0 0 0 0 0 0 0 0 0 0 0 0 0 0 0 0 0 0
0 0 0 0 0 0 0 0 0 0 0 0 0 0 0 0 0 0 0 0 0 0 0 0 0 0 0 0 0 0 0 0
0 0 0 0 0 0 0 0 0 0 0 0 0 0 0 0 0 0 0 0 0 0 0 0 0 0 0 0 0 0 0 0
0 0 0 0 0 0 0 0 0 0 0 0 0 0 0 0 0 0 0 0 0 0 0 0 0 0 0 0 0 0 0 0
0 0 0 0 0 0 0 0 0 2 0 0 0 0 0 0 0 0 0 0 0 2 0 2 1 0 0 0 0 0 0 0
0 0 0 0 0 0 0 1 7 0 0 0 0 0 0 0 0 0 0 0 0 11 5 3 1 0 0 0 0 0 0 0
0 0 0 0 0 1 8 1 0 0 0 0 0 0 0 0 0 0 0 0 0 0 1 1 1 6 0 0 0 0 0 0
0 0 0 4 3 1 0 0 0 0 0 0 0 0 0 0 0 0 0 0 0 0 7 24 13 12 10 0 0 0 0 0
0 1 0 0 0 0 0 0 0 0 0 0 0 0 0 0 0 0 0 0 0 6 34 53 17 4 19 0 0 0 0 0

GFSFLT2_con_mucape_009.txt.gz
CAPE
599 645 732 858 812 840 973 1142 1102 1032 1083 1105 961 945 697 484 409 405 268 184 139 132 148 117 204 230 187 143 144 127 388 309
671 688 532 538 620 452 656 878 1019 823 652 404 322 393 235 137 0 45 84 57 23 6 0 0 1 39 37 12 3 15 56 60
726 668 454 295 292 382 402 644 877 806 579 256 146 228 92 4 0 0 3 0 0 0 0 0 0 0 0 0 0 0 0 0
850 824 747 403 153 337 492 428 763 1041 934 644 329 179 30 2 0 0 0 0 0 0 0 0 0 0 0 0 0 0 0 0
1007 1058 996 681 403 353 347 308 465 627 924 796 338 116 63 27 0 0 0 0 0 0 0 0 0 0 0 0 0 0 0 0
1567 1210 1093 1124 883 736 483 411 384 505 490 515 518 324 110 3 0 0 0 0 0 0 0 0 0 0 0 0 0 0 0 0
1580 1391 1016 579 248 412 540 556 554 573 495 347 216 183 131 0 0 0 0 0 0 0 0 0 0 0 0 0 0 0 0 0
1248 695 122 58 14 98 197 298 411 365 424 368 258 90 68 0 0 0 0 0 0 0 0 0 0 0 0 0 0 0 0 0
800 6 0 8 0 0 0 0 0 20 125 94 65 33 30 17 25 29 32 18 0 0 0 0 0 0 0 0 0 0 0 0
355 0 0 0 0 0 0 0 0 0 0 0 0 0 5 27 22 26 39 44 11 0 0 0 0 0 0 0 0 0 0 0
112 0 0 0 0 0 0 0 0 0 0 0 0 0 0 16 6 0 0 0 0 0 0 0 0 0 0 0 0 0 0 0
0 0 0 0 0 0 0 0 0 0 0 0 0 0 0 0 0 0 0 0 0 0 0 0 0 0 0 0 0 0 0 0
0 0 0 0 0 0 0 0 0 0 0 0 0 0 0 0 0 0 0 0 0 0 0 0 0 0 0 0 0 0 0 0
0 0 0 0 0 0 0 0 0 0 0 0 0 0 0 0 0 0 0 0 0 0 0 0 0 0 0 0 0 0 0 0
0 0 0 0 0 0 0 0 2 5 3 1 0 0 0 0 0 0 0 0 0 0 0 0 0 0 0 0 0 0 0 0
0 0 0 0 0 0 0 0 0 0 0 0 0 0 0 0 0 0 0 0 0 0 0 0 2 4 0 0 0 0 0 0
0 0 0 0 0 0 1 2 3 4 0 0 0 0 0 0 0 0 0 0 0 0 0 0 0 1 8 2 1 0 0 0
0 0 0 1 0 3 8 14 1 0 0 0 0 0 0 0 0 0 0 0 0 0 0 0 0 0 0 4 13 16 16 0
0 2 3 5 13 13 4 0 0 0 0 0 0 0 0 0 0 0 0 0 0 0 0 0 0 0 0 12 41 22 13 1
0 0 0 1 0 0 0 0 0 0 0 0 0 0 0 0 0 0 0 0 0 0 0 0 9 7 12 43 3 0 0 0

GFSFLT2_con_mucape_012.txt.gz
CAPE
405 441 602 697 618 714 854 957 875 810 879 860 792 739 475 334 272 247 179 115 62 48 57 39 16 40 38 32 18 83 886 847
638 799 663 696 619 303 484 661 769 597 462 245 213 311 112 13 0 5 21 2 0 0 0 0 0 0 0 0 0 0 238 522
1096 1049 953 764 507 462 162 373 667 555 470 167 277 458 426 99 0 0 0 0 0 0 0 0 0 0 0 0 0 0 8 12
1472 1559 1379 1040 227 695 709 621 692 961 1047 1167 830 852 641 53 0 0 0 0 0 0 0 0 0 0 0 0 0 0 0 0
1550 1892 1819 1431 562 536 409 401 539 769 1329 1438 1038 975 734 522 382 39 2 0 0 0 0 0 0 0 0 0 0 0 0 0
1770 1906 2023 1883 951 508 442 493 486 654 759 1419 1261 932 677 572 217 12 0 0 0 0 0 0 0 0 0 0 0 0 0 0
2094 2236 2192 1469 1160 506 780 859 526 790 777 669 1192 751 501 286 54 0 0 0 0 0 0 0 0 0 0 0 0 0 0 0
2143 2386 2123 729 434 614 454 473 384 485 229 196 720 824 229 60 3 0 0 0 0 0 0 0 0 0 0 0 0 0 0 0
1836 2001 1026 516 279 138 27 8 33 7 13 77 224 322 96 87 29 1 0 0 0 0 0 0 0 0 0 0 0 0 0 0
1163 895 398 325 67 35 8 4 15 10 12 23 38 56 79 83 43 28 25 31 0 0 0 0 0 0 0 0 0 0 0 0
704 709 195 75 38 27 33 47 51 11 14 3 1 19 31 64 28 23 59 46 4 0 0 0 0 0 0 0 0 0 0 0
461 244 54 29 3 0 0 0 0 0 0 0 0 0 0 0 0 6 29 37 20 2 7 0 0 0 0 0 0 0 0 0
23 2 0 0 0 0 0 0 0 0 0 0 0 0 0 0 0 0 2 2 15 31 24 19 12 5 0 0 0 0 0 0
0 0 0 0 0 0 0 0 0 0 0 0 0 0 0 0 0 0 0 0 0 16 35 49 37 16 3 0 2 6 16 0
0 0 0 0 0 0 0 0 1 4 6 7 4 0 0 0 0 0 0 0 0 0 0 13 34 60 118 21 14 38 72 55
0 0 0 0 0 0 0 0 5 4 3 3 4 1 0 0 0 0 0 0 0 0 0 3 14 21 72 159 102 43 62 101
0 0 0 0 0 0 0 2 6 9 6 0 0 0 0 0 0 0 0 0 0 0 0 3 12 30 32 47 30 50 44 15
0 0 0 0 0 0 8 7 0 0 0 0 0 0 0 0 0 0 0 0 1 2 6 12 9 7 8 8 3 3 1 1
1 4 3 0 0 1 0 0 0 0 0 0 0 0 0 0 0 1 4 6 6 9 0 0 0 0 0 1 2 0 1 8
0 4 0 0 0 0 0 0 0 0 0 0 0 0 0 0 6 12 15 15 17 27 27 0 0 0 0 5 3 5 6 8

GFSFLT2_con_mucape_015.txt.gz
CAPE
145 195 351 592 578 659 728 675 611 577 588 595 622 454 265 162 135 126 103 60 25 5 7 3 0 0 0 0 0 0 156 547
402 413 354 544 643 415 515 582 566 404 288 145 179 324 157 30 5 15 1 0 0 0 0 0 0 0 0 0 0 0 24 61
562 572 409 241 85 325 104 407 586 482 441 350 393 524 366 257 0 0 0 0 0 0 0 0 0 0 0 0 0 0 0 0
812 1071 725 353 2 213 261 170 430 511 633 827 582 650 514 188 24 5 0 0 0 0 0 0 0 0 0 0 0 0 0 0
707 1768 1324 610 221 51 117 136 211 363 682 882 622 681 565 380 237 118 81 4 13 2 5 6 1 0 0 0 0 0 0 0
657 1683 1855 1119 354 81 119 121 284 235 536 519 439 326 295 214 21 2 4 4 1 4 2 5 4 0 0 0 0 0 0 0
648 1351 2323 1024 537 133 206 300 296 441 290 192 219 182 135 7 0 0 0 2 4 2 0 0 0 0 0 0 0 0 0 0
695 1240 2282 998 107 166 215 270 224 179 27 29 58 141 127 61 37 16 1 0 0 0 0 0 0 0 0 0 0 0 0 0
909 1516 2047 788 161 79 34 4 1 0 0 10 29 71 74 92 57 65 47 66 114 36 6 7 6 2 0 0 0 0 0 0
497 1439 1682 722 41 27 15 4 5 14 19 20 24 50 52 82 45 59 117 127 44 62 6 6 9 7 7 0 0 0 0 0
297 1397 1161 363 71 39 50 46 66 35 36 11 0 4 0 23 31 62 197 106 175 126 91 96 43 22 7 14 5 0 0 0
493 1135 557 154 56 29 2 0 0 2 0 0 0 1 0 0 2 58 60 7 44 86 225 119 199 147 15 13 63 6 1 10
460 212 102 27 0 0 0 0 1 1 10 4 3 0 0 0 0 0 1 0 21 95 113 149 125 240 229 192 137 102 68 7
0 0 0 0 0 0 0 0 1 3 16 0 0 0 0 1 1 4 0 0 5 37 90 81 118 200 261 272 212 114 161 132
0 0 0 0 0 0 0 0 0 0 0 0 0 0 0 0 0 0 0 0 0 21 32 63 47 72 257 285 171 120 206 236
0 0 0 0 0 0 0 0 0 0 1 4 0 0 0 0 0 0 2 1 6 15 11 93 107 58 108 60 282 262 170 159
0 0 0 0 0 0 0 1 0 0 0 0 0 0 0 0 0 0 0 0 3 9 8 19 21 27 29 28 8 6 17 19
0 0 0 1 5 5 0 0 0 0 0 0 0 0 0 0 0 0 6 10 22 23 16 5 9 8 0 0 0 1 2 3
0 0 2 3 0 0 1 1 0 0 0 0 0 0 0 0 0 0 0 27 43 34 14 9 0 0 0 0 0 0 6 6
0 0 0 1 7 8 5 2 0 0 0 0 0 0 0 0 11 33 32 43 9 7 9 9 12 0 0 0 0 0 4 1

GFSFLT2_con_mucape_021.txt.gz
CAPE
87 184 313 344 355 359 368 423 532 572 543 534 359 301 262 286 139 31 4 0 0 0 0 0 0 0 0 0 0 0 0 2
29 19 165 25 58 185 172 176 188 131 168 246 194 181 129 107 98 60 1 0 0 0 0 0 0 0 0 0 0 0 0 0
136 198 195 57 0 106 248 259 225 170 171 265 172 185 122 45 42 45 25 0 0 0 0 0 0 0 0 0 0 0 0 0
193 105 256 158 1 34 22 122 192 324 363 306 324 163 221 102 57 13 4 0 0 0 0 0 0 0 0 0 0 0 0 0
262 110 22 49 46 60 118 129 279 475 430 183 57 197 51 2 43 23 0 3 0 0 0 0 0 0 0 0 0 0 0 0
446 231 113 187 14 0 11 96 225 418 249 129 27 13 0 0 0 0 0 0 0 0 0 0 0 0 0 0 0 0 0 0
810 560 378 317 20 20 42 204 101 112 112 24 8 31 0 0 2 0 0 0 0 0 0 0 0 0 0 0 0 0 0 0
1018 1021 948 518 155 79 142 187 82 129 6 0 11 0 18 10 0 5 0 0 12 0 0 0 0 0 0 0 0 0 0 0
1026 529 59 575 302 38 44 180 25 1 0 0 0 0 0 0 7 14 6 12 1 0 0 0 0 0 0 0 0 0 0 0
861 621 361 504 147 76 20 8 0 0 0 0 0 0 0 0 0 0 0 0 0 0 0 0 0 0 0 0 0 0 0 0
639 979 634 443 78 70 66 18 0 2 7 7 22 7 0 0 0 0 0 0 0 0 0 0 0 0 0 0 0 0 0 0
850 612 476 124 107 79 57 22 6 0 0 0 0 0 0 0 0 0 0 0 0 0 0 0 0 0 0 0 0 0 0 0
572 574 341 154 91 39 21 5 0 0 0 0 0 0 0 0 0 0 0 0 0 0 0 0 0 0 0 0 0 0 0 0
346 258 106 2 0 0 0 0 0 0 0 0 0 0 0 0 0 0 0 0 0 0 0 0 0 0 0 0 0 0 0 0
0 0 0 0 0 0 0 0 0 0 0 2 1 0 0 0 0 0 0 0 0 0 0 0 0 0 0 1 3 0 0 0
0 0 0 0 0 0 0 0 0 0 7 1 0 0 0 0 0 0 0 0 0 0 0 6 17 17 11 12 20 17 0 0
0 0 0 0 0 0 0 0 0 0 0 0 0 0 0 0 0 0 0 0 0 4 10 6 9 5 2 1 2 0 0 0
0 0 0 0 0 0 0 0 0 0 0 0 0 0 0 0 0 0 0 0 0 0 0 8 12 12 20 6 5 0 0 0
0 0 0 0 0 0 0 0 0 0 0 0 0 0 0 0 0 0 1 0 0 1 18 28 19 7 1 0 0 0 0 0
0 0 0 0 0 0 0 0 0 0 0 0 0 0 0 0 0 0 5 7 11 16 10 0 0 0 0 9 9 0 0 0

GFSFLT2_con_mucape_024.txt.gz
CAPE
180 271 363 343 325 350 402 590 702 697 642 505 403 299 303 240 75 8 0 0 0 0 0 0 0 0 0 0 0 0 0 0
0 29 10 8 48 189 217 279 287 322 322 222 128 105 128 143 85 29 0 0 0 0 0 0 0 0 0 0 0 0 0 0
7 7 0 0 0 67 203 266 181 136 231 178 104 122 63 32 23 0 36 0 0 0 0 0 0 0 0 0 0 0 0 0
94 39 18 0 7 55 67 73 171 215 231 221 139 154 183 85 30 75 97 16 6 9 9 0 0 0 0 0 0 0 0 0
163 83 82 24 44 102 86 160 261 332 269 279 198 198 229 181 31 0 0 0 0 0 0 0 0 0 0 0 0 0 0 0
214 142 215 139 114 91 149 169 376 517 331 17 0 0 0 0 0 0 0 0 0 0 0 0 0 0 0 0 0 0 0 0
222 95 120 63 56 53 85 187 465 440 144 45 0 1 0 0 0 0 0 0 0 0 0 0 0 0 0 0 0 0 0 0
369 332 360 42 3 17 108 106 130 161 85 22 2 5 2 0 0 0 0 0 0 0 0 0 0 0 0 0 0 0 0 0
582 520 301 410 296 96 107 133 105 132 35 9 0 0 0 0 0 0 0 0 0 0 0 0 0 0 0 0 0 0 0 0
890 648 366 131 296 177 61 199 20 0 2 0 1 7 5 0 0 0 0 0 0 0 0 0 0 0 0 0 0 0 0 0
966 670 432 303 302 124 55 36 24 8 6 3 4 23 29 12 1 0 1 0 0 0 0 0 0 0 0 0 0 0 0 0
795 622 421 200 83 57 67 55 23 19 3 0 0 3 5 10 12 1 0 0 0 0 0 0 0 0 0 0 0 0 0 0
296 194 77 67 69 72 47 32 5 0 0 0 5 18 23 8 2 6 1 0 0 0 0 0 0 0 0 0 0 0 0 0
83 57 38 5 0 0 0 0 0 0 0 0 1 7 9 12 4 0 0 0 0 0 0 0 0 0 0 0 0 0 0 0
11 0 0 0 0 0 0 0 0 0 0 0 0 0 0 0 0 0 0 0 0 0 0 1 8 7 4 1 0 0 0 0
0 0 0 0 0 0 0 0 0 0 0 0 0 0 0 0 0 0 0 0 0 0 5 5 8 0 9 4 7 5 0 0
0 0 0 0 0 0 0 0 0 0 0 0 1 0 0 0 0 0 0 0 0 0 0 0 0 1 0 1 0 4 3 0
0 0 0 0 0 0 0 0 0 0 0 0 0 0 0 0 0 0 0 0 0 1 3 2 0 0 0 0 0 0 1 0
0 0 0 0 0 0 0 0 0 0 1 0 0 0 0 0 0 0 0 0 5 17 11 0 0 0 0 1 3 8 8 7
0 0 1 0 0 0 0 0 0 0 0 0 0 0 0 0 0 0 0 0 1 3 6 4 4 17 0 18 16 37 2 6

GFSFLT2_con_mucape_027.txt.gz
CAPE
408 418 493 541 515 498 473 520 542 577 592 593 467 374 237 169 45 14 0 0 0 0 0 0 0 0 0 0 0 0 0 0
73 112 129 87 119 235 289 360 383 397 347 226 88 102 109 109 49 40 2 0 0 0 0 0 0 0 0 0 0 0 0 0
0 1 0 0 0 27 170 265 252 233 183 120 56 27 19 12 35 29 62 21 1 4 9 0 0 0 0 0 0 0 0 0
0 0 0 0 0 3 0 58 47 131 205 117 91 131 126 44 6 60 185 172 146 97 42 19 0 0 0 0 0 0 0 0
27 0 0 4 16 28 21 78 127 199 251 237 203 148 147 175 108 0 0 0 0 0 0 0 0 0 0 0 0 0 0 0
158 26 0 1 34 96 67 115 266 291 282 237 69 64 0 0 0 0 0 0 0 0 0 0 0 0 0 0 0 0 0 0
248 82 133 40 90 85 148 164 237 440 450 84 8 0 0 0 0 0 0 0 0 0 0 0 0 0 0 0 0 0 0 0
305 171 139 48 78 126 174 259 255 485 334 38 2 0 0 0 0 0 0 0 0 0 0 0 0 0 0 0 0 0 0 0
398 215 193 70 38 35 122 159 326 85 200 46 12 0 0 0 0 0 0 0 0 0 0 0 0 0 0 0 0 0 0 0
349 247 137 184 187 108 53 117 77 30 81 27 1 5 8 12 5 0 0 0 0 0 0 0 0 0 0 0 0 0 0 0
342 134 273 94 199 109 89 62 7 14 29 14 8 14 29 30 30 17 5 5 4 0 0 0 0 0 0 0 0 0 0 0
363 305 236 209 193 136 71 21 56 46 43 35 6 6 12 25 19 16 9 1 0 0 0 0 0 0 0 0 0 0 0 0
532 373 304 125 117 93 68 68 35 38 13 16 21 14 7 9 5 4 5 1 0 0 0 0 0 0 0 0 0 0 0 0
103 91 59 50 49 47 11 0 0 8 7 0 0 0 0 0 0 0 0 0 0 0 0 0 0 0 0 0 0 0 0 0
0 0 0 0 0 0 0 0 0 0 0 0 0 0 0 0 0 0 0 0 0 0 0 0 0 0 0 0 0 0 0 0
0 0 0 0 0 0 0 0 0 0 0 0 0 0 0 0 0 0 0 0 0 0 0 0 0 0 0 0 0 0 0 0
0 0 0 0 0 0 0 0 0 0 0 0 3 0 0 0 0 0 0 0 0 0 0 0 0 0 0 0 0 0 0 0
0 0 0 0 0 0 0 0 0 0 0 0 0 0 0 0 0 0 0 0 0 0 0 0 0 0 0 0 0 7 0 12
0 0 0 0 0 0 0 0 0 0 0 0 0 0 0 0 0 0 0 0 0 0 0 0 0 0 0 0 0 1 29 12
0 0 0 0 0 0 0 0 0 0 0 0 0 0 0 0 0 0 0 0 0 0 0 7 6 0 0 9 8 12 16 20

GFSFLT2_con_mucape_030.txt.gz
CAPE
568 641 685 735 706 598 566 528 533 574 577 499 439 251 147 59 27 12 0 0 21 76 64 33 58 11 0 0 0 0 0 0
393 416 415 337 310 318 328 348 340 376 383 256 118 49 15 19 0 15 80 118 130 216 176 131 105 64 0 0 0 0 0 0
95 66 16 0 10 136 308 360 299 285 224 102 20 1 0 0 0 76 164 256 208 173 199 64 27 0 0 0 0 0 0 0
0 0 0 0 0 3 0 33 67 90 80 55 56 71 45 21 10 15 30 0 0 0 0 0 0 0 0 0 0 0 0 0
0 0 0 0 0 0 0 11 52 159 149 132 116 110 122 77 59 0 0 0 0 0 0 0 0 0 0 0 0 0 0 0
0 0 0 0 0 3 28 123 142 232 239 252 208 110 2 0 0 0 0 0 0 0 0 0 0 0 0 0 0 0 0 0
54 12 0 0 6 63 98 161 259 300 402 293 61 6 0 0 0 0 0 0 0 0 0 0 0 0 0 0 0 0 0 0
266 88 25 3 39 96 127 169 240 348 493 257 25 1 0 0 0 0 1 0 0 0 0 0 0 0 0 0 0 0 0 0
409 222 135 87 61 89 131 232 283 425 444 229 43 5 0 0 0 0 12 1 0 0 0 0 0 0 0 0 0 0 0 0
315 276 82 35 21 42 108 173 129 108 229 180 46 10 1 0 12 23 14 13 6 1 0 0 0 0 0 0 0 0 0 0
280 84 51 36 41 41 22 89 122 46 46 37 31 23 10 24 26 17 9 5 2 0 0 0 0 0 0 0 0 0 0 0
259 84 84 100 50 46 67 29 32 37 36 34 29 14 16 12 11 1 0 0 0 0 0 0 0 0 0 0 0 0 0 0
293 195 100 50 38 82 79 56 27 2 0 0 4 13 3 0 0 0 0 0 0 0 0 0 0 0 0 0 0 0 0 0
131 59 28 0 0 0 0 0 0 0 0 0 0 0 0 0 0 0 0 0 0 0 0 0 0 0 0 0 0 0 0 0
1 0 0 0 0 0 0 0 0 0 0 0 0 0 0 0 0 0 0 0 0 0 0 0 0 0 0 0 0 0 0 0
0 0 0 0 0 0 0 0 0 0 0 0 0 0 0 0 0 0 0 0 0 0 0 0 0 0 0 0 0 0 0 0
0 0 0 0 0 0 0 0 0 0 0 0 0 0 0 0 0 0 0 0 0 0 0 0 0 0 0 0 0 0 0 0
0 0 0 0 0 0 0 0 0 0 0 0 0 0 0 0 0 0 0 0 0 0 0 0 0 0 0 0 0 0 0 0
0 0 0 0 0 0 0 0 0 0 0 0 0 0 0 0 0 0 0 0 0 0 0 1 0 0 0 0 0 0 0 17
0 0 0 0 0 0 0 0 0 0 0 0 0 0 0 0 0 0 0 0 0 1 2 0 0 0 0 0 0 0 10 6

GFSFLT2_con_mucape_033.txt.gz
CAPE
790 779 844 860 892 713 559 538 565 610 601 528 370 225 164 163 144 90 37 55 59 39 36 56 25 7 0 0 0 0 0 0
747 775 760 788 693 470 392 388 395 395 396 247 88 49 58 138 1 141 193 167 133 106 122 52 0 0 0 0 0 0 0 0
435 488 501 439 378 382 306 341 303 291 261 58 31 98 90 69 22 113 132 7 3 0 0 0 0 0 0 0 0 0 0 0
165 210 185 102 47 301 327 284 247 278 240 279 173 171 153 118 33 0 0 0 0 0 0 0 0 0 0 0 0 0 0 0
27 55 22 2 12 110 74 189 172 168 200 166 193 158 170 224 20 0 0 0 0 0 0 0 0 0 0 0 0 0 0 0
0 0 0 0 0 0 0 64 130 236 300 370 291 104 5 0 0 0 0 0 0 0 0 0 0 0 0 0 0 0 0 0
1 0 0 0 2 10 31 100 175 240 326 291 32 3 0 0 0 0 0 0 0 0 0 0 0 0 0 0 0 0 0 0
78 9 0 0 9 73 82 114 198 329 370 406 138 9 0 0 0 0 0 0 3 0 0 0 0 0 0 0 0 0 0 0
279 134 81 77 95 78 113 158 169 230 268 236 155 65 10 0 0 1 5 6 4 0 0 0 0 0 0 0 0 0 0 0
286 254 131 92 64 30 59 32 101 171 143 126 98 50 17 7 2 4 5 2 0 0 0 0 0 0 0 0 0 0 0 0
186 178 121 75 1 0 42 34 61 79 67 29 34 38 22 4 0 1 1 0 0 0 0 0 0 0 0 0 0 0 0 0
147 214 151 52 6 38 38 63 45 39 49 26 7 2 0 0 0 0 0 0 0 0 0 0 0 0 0 0 0 0 0 0
156 171 152 90 101 51 16 14 0 0 0 0 0 0 0 0 0 0 0 0 0 0 0 0 0 0 0 0 0 0 0 0
60 167 41 23 4 0 0 0 0 0 0 0 0 0 0 0 0 0 0 0 0 0 0 0 0 0 0 0 0 0 0 0
139 14 0 0 0 0 0 0 0 0 0 0 0 0 0 0 0 0 0 0 0 0 0 0 0 0 0 0 0 0 0 0
0 0 0 0 0 0 0 0 0 0 0 0 0 0 0 0 0 0 0 0 0 0 0 0 0 0 0 0 0 0 0 0
0 0 0 0 0 0 0 0 0 0 0 0 0 0 0 0 0 0 0 0 0 0 0 2 4 0 0 0 0 0 0 0
2 1 0 0 0 0 0 0 0 0 0 0 0 0 0 0 0 0 0 0 0 0 12 24 37 23 0 0 0 0 0 0
2 0 0 0 0 0 0 0 0 0 0 0 0 0 0 0 0 0 0 0 1 5 15 37 64 32 20 0 9 6 0 12
0 0 0 0 14 0 0 0 0 0 0 0 0 0 0 0 0 0 0 7 5 20 25 43 91 102 56 43 40 36 66 7

GFSFLT2_con_mucape_036.txt.gz
CAPE
993 1024 929 895 861 725 576 578 638 656 631 559 398 292 258 173 134 70 78 81 69 42 0 0 0 0 0 0 0 0 0 0
636 640 628 623 639 544 433 447 475 487 473 289 169 169 193 51 212 164 115 44 42 0 0 0 0 0 0 0 0 0 0 0
536 509 501 365 234 367 287 348 367 330 267 142 98 244 221 130 23 52 0 0 0 0 0 0 0 0 0 0 0 0 0 0
531 452 376 285 47 176 156 87 304 512 461 481 460 606 506 285 36 0 0 0 0 0 0 0 0 0 0 0 0 0 0 0
213 305 228 70 30 153 197 480 642 716 743 711 829 800 857 686 111 18 5 0 0 0 0 0 0 0 0 0 0 0 0 0
74 93 173 136 83 201 409 508 666 786 913 1030 1072 882 445 169 31 0 0 0 0 0 0 0 0 0 0 0 0 0 0 0
143 87 48 114 190 300 431 639 756 885 960 745 519 407 236 25 0 0 0 0 0 0 0 0 0 0 0 0 0 0 0 0
322 250 238 181 363 515 574 586 637 747 471 296 100 212 95 0 0 0 2 1 1 1 0 0 0 0 0 0 0 0 0 0
436 548 476 340 141 118 191 83 125 144 152 139 78 101 68 31 23 6 5 0 0 0 0 0 0 0 0 0 0 0 0 0
447 176 82 97 83 43 34 12 0 12 55 80 63 46 17 17 17 4 0 0 0 0 0 0 0 0 0 0 0 0 0 0
397 289 95 77 73 39 4 0 9 25 38 44 31 9 7 9 6 0 0 0 0 0 0 0 0 0 0 0 0 0 0 0
433 451 172 59 61 0 3 66 16 14 1 0 0 0 0 0 0 0 0 0 0 0 0 0 0 0 0 0 0 0 0 0
535 139 166 28 0 0 40 4 0 0 0 0 0 0 0 0 0 0 0 0 0 0 0 0 0 0 0 0 0 0 9 2
340 222 116 13 20 5 0 0 0 0 0 0 0 0 0 0 0 0 0 0 0 0 0 0 0 0 0 0 0 0 0 12
583 664 405 48 0 0 0 0 0 0 0 0 0 0 0 0 0 0 0 0 0 0 0 1 0 0 10 6 0 0 0 7
542 207 38 1 0 0 0 3 3 0 0 0 0 0 0 0 0 0 0 0 1 5 3 7 16 0 25 21 34 34 0 0
6 0 0 0 0 0 0 0 0 0 0 0 0 0 0 0 0 0 0 9 22 33 30 44 42 40 59 40 30 21 17 0
0 0 0 0 0 0 0 0 0 0 0 0 0 0 0 1 8 10 28 47 66 83 81 60 66 72 53 31 23 24 28 6
0 0 0 0 0 0 0 3 1 0 0 0 0 0 10 20 22 25 39 63 84 79 80 70 76 77 66 52 31 26 22 38
0 0 0 0 0 4 8 10 0 0 0 0 0 1 0 0 0 0 2 9 35 72 74 75 71 76 71 67 32 16 18 27

GFSFLT2_con_mucape_039.txt.gz
CAPE
841 1006 941 823 716 575 497 589 631 658 634 450 337 340 352 311 208 115 94 126 64 5 0 0 0 0 0 0 0 0 0 0
753 663 603 611 573 412 413 468 491 500 374 253 180 141 95 266 339 93 26 29 0 0 0 0 0 0 0 0 0 0 0 0
432 385 440 323 215 313 335 480 450 340 155 131 47 70 123 200 20 0 0 0 0 0 0 0 0 0 0 0 0 0 0 0
428 426 406 258 25 77 88 129 148 305 269 284 560 371 498 237 17 0 0 0 0 0 0 0 0 0 0 0 0 0 0 0
308 336 286 107 178 91 135 315 556 641 653 704 884 580 612 554 302 93 94 0 18 0 0 0 0 0 0 0 0 0 0 0
137 148 163 86 70 179 327 505 611 701 831 895 838 765 718 492 180 88 57 9 6 0 1 0 0 0 0 0 0 0 0 0
11 29 128 313 346 577 580 766 1180 964 1002 1007 893 676 672 327 158 38 8 1 0 0 0 0 0 0 0 0 0 0 0 0
104 99 230 336 687 722 967 1192 1048 879 697 452 328 425 635 212 53 3 9 17 11 0 0 0 0 0 0 0 0 0 0 0
498 551 566 593 526 423 178 119 132 247 161 107 142 162 88 24 18 18 12 0 0 0 0 0 0 0 0 0 0 0 0 0
648 596 488 232 70 42 85 35 1 0 1 33 43 48 22 11 4 0 0 0 0 0 0 0 0 0 0 0 0 0 0 0
592 513 213 48 16 10 5 14 1 1 30 25 21 12 0 0 0 0 0 0 0 0 0 0 0 0 0 0 0 0 0 0
710 514 337 90 32 40 23 0 0 19 35 2 0 0 0 0 0 0 0 0 0 0 0 0 0 0 0 0 0 0 0 5
636 487 207 117 46 1 0 0 0 2 0 0 0 0 0 0 0 0 0 0 0 0 0 0 0 0 0 0 0 0 0 0
822 535 177 449 0 20 17 8 0 0 0 0 0 0 0 0 0 0 0 0 0 0 0 1 1 1 0 0 0 0 0 0
948 586 601 279 204 7 1 0 0 0 0 0 0 0 0 0 0 0 0 0 0 3 9 12 0 15 13 5 0 0 0 4
724 463 351 91 1 0 0 2 8 9 3 10 0 0 0 0 0 0 1 3 9 18 20 31 45 0 28 20 37 23 0 0
469 309 45 1 0 0 1 20 23 9 1 0 0 0 4 0 1 5 7 16 27 66 93 78 79 59 49 57 76 53 42 42
49 6 7 0 0 2 13 18 1 13 4 1 0 0 1 5 8 13 18 18 36 49 63 50 60 70 64 73 62 48 32 48
0 0 2 3 11 19 3 0 2 2 1 0 0 0 0 0 1 0 0 0 2 21 54 93 67 98 64 51 83 60 60 41
0 4 11 17 11 0 0 0 0 0 0 0 0 0 0 0 0 0 0 0 5 21 57 110 80 122 78 50 39 82 49 36

GFSFLT2_con_mucape_042.txt.gz
CAPE
526 670 782 578 425 417 473 495 506 483 386 328 334 338 301 379 361 224 154 108 0 0 0 0 0 0 0 0 0 0 0 0
451 698 590 438 277 324 348 374 382 337 258 192 142 132 236 377 220 108 51 0 0 0 0 0 0 0 0 0 0 0 0 0
468 481 445 346 283 310 362 433 358 228 162 145 30 15 43 153 33 8 0 0 0 0 0 0 0 0 0 0 0 0 0 0
349 406 393 151 44 142 113 140 61 42 72 150 209 421 140 100 0 0 0 0 0 0 0 0 0 0 0 0 0 0 0 0
222 309 250 54 33 65 56 106 247 540 559 511 698 739 439 203 67 0 52 0 11 0 7 0 0 0 0 0 0 0 0 0
218 172 276 230 86 143 303 492 680 722 776 687 714 690 718 411 171 177 64 9 0 0 0 0 0 0 0 0 0 0 0 0
81 136 332 315 581 675 543 520 621 560 857 549 431 602 589 357 127 16 0 0 2 0 0 0 0 0 0 0 0 0 0 0
50 124 400 578 695 642 507 567 624 501 381 320 361 396 496 223 9 0 0 6 0 0 0 0 0 0 0 0 0 0 0 0
101 291 644 436 393 309 239 196 55 30 44 82 86 102 117 68 38 8 4 0 0 0 0 0 0 0 0 0 0 0 0 0
323 516 456 325 277 216 91 45 1 11 3 2 3 6 5 9 23 3 0 0 0 0 0 0 0 0 0 0 0 0 0 0
620 429 368 199 31 34 41 8 8 0 0 0 1 1 0 0 0 0 0 0 0 0 0 0 0 0 0 0 0 0 0 0
407 270 116 106 36 11 23 16 5 0 0 0 1 0 0 0 0 0 0 0 0 0 0 0 0 0 0 0 0 0 0 0
368 292 68 62 59 29 4 3 0 0 0 0 0 0 0 0 0 0 0 0 0 0 0 0 0 0 0 0 0 0 0 0
488 321 294 34 39 34 0 0 0 0 0 0 0 0 0 0 0 0 0 0 0 0 0 0 0 0 0 0 0 0 0 0
548 360 169 173 21 27 0 0 0 0 0 0 0 0 0 0 0 0 0 0 0 0 0 2 0 0 0 4 0 0 0 0
730 545 354 405 149 0 0 0 0 0 0 1 0 0 0 0 0 0 0 0 0 0 0 0 2 0 7 4 0 0 0 0
884 688 217 39 0 0 0 15 11 10 10 11 12 6 0 0 0 2 3 3 1 1 7 5 12 22 20 5 7 0 0 0
696 309 100 0 0 7 4 14 3 0 0 1 0 0 0 0 0 0 0 0 0 0 0 0 0 19 25 21 13 0 0 0
367 63 7 0 0 1 3 0 0 0 5 9 7 0 0 0 0 0 0 0 0 0 0 0 15 37 21 22 10 0 0 3
31 0 0 0 9 9 1 0 0 1 6 22 18 0 0 0 0 0 0 0 0 0 0 0 9 30 11 18 13 0 2 0

GFSFLT2_con_mucape_045.txt.gz
CAPE
130 298 444 455 370 313 262 285 238 241 242 239 238 243 299 363 346 208 87 3 0 0 0 0 0 0 0 0 0 2 0 0
174 293 322 255 231 234 219 230 209 188 173 165 156 201 254 161 81 128 62 0 0 0 0 0 0 0 0 0 0 0 0 0
171 255 235 181 178 236 204 228 128 100 99 73 24 8 9 40 0 0 0 0 0 0 0 0 0 0 0 0 0 0 0 0
203 296 127 96 139 82 91 77 4 1 36 25 21 26 20 0 0 0 0 0 0 0 0 0 0 0 0 0 0 0 0 0
310 294 99 0 10 1 0 0 0 0 136 199 192 118 68 36 0 0 0 0 0 0 0 0 0 0 0 0 0 0 0 0
337 305 3 0 0 1 133 126 169 206 353 321 303 266 231 143 27 13 0 0 0 0 0 0 0 0 0 0 0 0 0 0
131 27 0 0 9 82 192 289 314 366 315 243 215 272 116 56 3 0 3 0 0 0 0 0 0 0 0 0 0 0 0 0
132 28 3 219 197 211 274 284 292 280 230 147 214 219 62 11 7 0 0 0 0 0 0 0 0 0 0 0 0 0 0 0
55 166 331 250 240 230 187 194 213 170 168 98 48 66 86 24 12 1 0 0 0 0 0 0 0 0 0 0 0 0 0 0
72 325 375 272 257 220 183 145 11 6 1 0 8 26 26 31 43 0 0 0 0 0 0 0 0 0 0 0 0 0 0 0
393 377 420 309 219 170 109 40 2 2 4 0 0 5 4 1 0 0 0 0 0 0 0 0 0 0 0 0 0 0 0 0
428 390 370 314 206 117 49 35 22 0 0 0 0 0 0 0 0 0 0 0 0 0 0 0 0 0 0 0 0 0 0 0
429 408 361 200 55 38 27 22 3 10 8 0 0 0 0 0 0 0 0 0 0 0 0 0 0 0 0 0 0 0 0 0
462 367 178 26 25 19 22 5 0 0 0 0 0 0 0 0 0 0 0 0 0 0 0 0 0 0 0 0 0 0 0 0
506 363 225 71 60 19 26 0 0 0 0 0 0 0 0 0 0 0 0 0 0 0 0 0 0 0 0 0 0 0 0 0
598 490 334 80 36 4 0 0 0 0 0 0 0 0 0 0 0 0 0 0 0 0 0 0 0 0 0 0 1 1 0 0
650 466 232 171 76 2 0 0 0 0 0 0 0 0 2 0 0 0 0 0 0 0 0 0 0 0 0 0 1 3 1 0
498 324 243 257 29 0 0 0 0 0 0 3 8 8 2 4 0 0 0 0 0 0 0 0 0 0 0 1 18 0 0 5
532 507 364 136 0 0 0 0 0 1 2 12 19 15 1 2 0 0 0 0 0 0 0 0 0 0 0 7 16 16 14 8
479 457 191 53 2 0 0 0 0 3 8 13 19 13 2 0 0 0 0 0 0 0 0 0 0 0 1 3 11 16 2 2

GFSFLT2_con_mucape_048.txt.gz
CAPE
75 58 271 389 330 278 229 228 206 237 238 215 232 237 272 322 302 176 43 1 0 0 0 0 0 0 0 0 0 0 0 0
9 53 237 350 327 257 209 215 182 186 164 151 167 190 201 196 183 144 48 0 0 0 0 0 0 0 0 0 0 0 0 0
2 115 129 207 191 179 192 182 146 142 149 111 25 18 5 0 2 23 4 0 0 0 0 0 0 0 0 0 0 0 0 0
88 129 188 121 121 95 42 31 8 1 10 7 20 12 15 0 0 14 0 0 0 0 0 0 0 0 0 0 0 0 0 0
151 196 64 23 21 20 1 0 19 67 81 40 61 45 1 0 0 0 0 0 0 0 0 0 0 0 0 0 0 0 0 0
274 137 21 1 0 0 1 0 70 184 228 225 197 36 89 105 0 0 0 0 0 0 0 0 0 0 0 0 0 0 0 0
290 63 7 3 1 0 9 30 135 228 266 293 297 245 71 0 0 0 0 0 0 1 0 0 0 0 0 0 0 0 0 0
178 41 0 0 5 133 156 197 321 345 318 288 205 236 69 31 3 2 0 0 0 0 0 0 0 0 0 0 0 0 0 0
323 23 52 56 158 177 225 277 346 294 158 154 139 119 48 38 7 7 3 6 0 0 0 0 0 0 0 0 0 0 0 0
144 99 63 101 190 256 319 369 230 109 65 66 6 14 27 29 30 23 0 0 0 0 0 0 0 0 0 0 0 0 0 0
225 232 265 283 292 296 268 225 85 16 11 0 0 0 4 22 11 1 0 0 0 0 0 0 0 0 0 0 0 0 0 0
264 337 301 302 276 222 179 145 84 19 0 0 0 0 0 3 0 0 0 0 0 0 0 0 0 0 0 0 0 0 0 0
203 377 393 358 269 208 150 92 21 12 15 15 6 0 2 0 0 0 0 0 0 0 0 0 0 0 0 0 0 0 0 0
393 394 415 362 248 157 87 34 42 45 27 9 0 0 0 0 0 0 0 0 0 0 0 0 0 0 0 0 0 0 0 0
452 463 385 372 314 79 31 43 45 0 0 0 0 0 0 0 0 0 0 0 0 0 0 0 0 0 0 0 0 0 0 0
483 488 436 352 88 27 62 34 0 0 0 0 0 0 0 0 0 0 0 0 0 0 0 0 0 0 0 0 0 0 0 0
524 552 448 394 172 81 34 12 0 0 0 0 0 0 0 0 0 0 0 0 0 0 0 0 0 0 0 0 0 0 0 0
562 572 562 387 138 125 0 0 0 0 0 0 0 0 0 0 0 1 0 0 0 0 0 0 0 0 0 0 0 0 0 0
763 593 477 225 136 6 4 0 0 0 0 1 2 0 6 13 4 0 2 0 0 0 0 0 0 0 0 0 0 1 12 14
834 624 403 208 222 84 32 0 0 0 1 1 0 11 14 0 0 0 1 3 0 0 0 0 0 0 0 0 0 1 4 7

GFSFLT2_con_mucape_051.txt.gz
CAPE
11 55 184 353 291 289 301 320 346 339 304 282 279 250 262 273 271 193 101 44 0 0 0 0 0 0 0 0 0 0 0 0
47 55 120 164 188 251 282 328 354 320 319 281 238 255 280 279 217 161 79 2 0 3 0 0 0 0 0 0 0 0 0 0
48 38 109 107 148 222 268 320 266 224 205 183 78 32 22 0 45 81 1 0 3 0 0 0 0 0 0 0 0 0 0 0
1 1 49 154 184 166 100 116 80 61 41 26 4 1 0 0 11 23 1 0 0 0 0 0 0 0 0 0 0 0 0 0
0 4 45 181 140 113 47 45 33 23 16 31 30 23 5 0 0 0 0 0 0 0 0 0 0 0 0 0 0 0 0 0
104 106 132 120 64 33 8 6 5 26 27 54 63 12 17 0 0 0 0 0 0 0 0 0 0 0 0 0 0 0 0 0
202 172 80 34 1 0 0 14 81 181 168 200 166 67 92 20 0 0 0 0 0 0 0 0 0 0 0 0 0 0 0 0
215 193 25 24 1 0 0 25 107 226 310 348 330 176 110 0 0 8 6 0 0 1 0 0 0 0 0 0 0 0 0 0
306 276 24 3 0 0 10 135 241 354 347 335 262 226 116 26 19 16 19 14 18 0 0 0 0 0 0 0 0 0 0 0
264 86 11 0 5 20 163 308 411 378 301 206 184 178 105 56 28 33 41 42 1 0 0 0 0 0 0 0 0 0 0 0
251 101 0 1 25 182 217 325 394 310 250 107 96 38 22 9 29 28 35 0 0 0 0 0 0 0 0 0 0 0 0 0
359 320 21 37 108 219 301 368 382 281 119 47 2 0 0 13 29 1 0 0 0 0 0 0 0 0 0 0 0 0 0 0
192 148 86 72 206 290 338 384 306 169 57 7 0 2 19 0 0 0 0 0 0 0 0 0 0 0 0 0 0 0 0 0
126 111 194 272 354 381 379 266 155 65 22 22 39 48 11 0 0 0 0 0 0 0 0 0 0 0 0 0 0 0 0 0
149 186 256 311 378 358 294 184 54 40 49 64 81 20 0 0 0 0 0 0 0 0 0 0 0 0 0 0 0 0 0 0
234 205 278 296 351 372 265 128 63 57 75 40 2 0 0 0 0 0 0 0 0 0 0 0 0 0 0 0 0 0 0 0
237 202 237 334 389 324 303 197 60 57 18 0 0 0 0 0 0 0 3 0 7 1 0 0 0 0 0 0 0 0 0 0
219 208 263 281 430 393 274 89 50 53 2 0 0 0 0 1 3 6 19 7 6 3 0 0 0 0 0 0 0 0 0 0
221 231 329 415 512 403 130 81 14 8 0 0 0 0 0 11 2 18 1 4 7 5 0 0 0 0 0 0 0 0 0 0
308 359 492 534 422 219 46 3 15 2 1 5 5 5 3 2 8 0 0 0 0 1 0 0 0 0 0 0 0 0 0 0